This is the latest recevied weather packets stored in our database for station/object N1UNH. If no packets are shown the sender has not sent any weather packets the latest 10 day(s).
| Time | Temp. | Humidity | Pressure | Rain* | Wind** | Luminosity | Snow |
|---|---|---|---|---|---|---|---|
| 1777949031 | 13.89° C | 56% | 1013.9 hPa | 0 mm | - | 0 W/m² | - |
| 1777948728 | 13.89° C | 54% | 1013.9 hPa | 0 mm | - | 0 W/m² | - |
| 1777948425 | 13.33° C | 57% | 1014 hPa | 0 mm | - | 0 W/m² | - |
| 1777948122 | 13.33° C | 58% | 1013.8 hPa | 0 mm | - | 0 W/m² | - |
| 1777947818 | 13.33° C | 60% | 1013.8 hPa | 0 mm | - | 0 W/m² | - |
| 1777947516 | 13.33° C | 57% | 1013.8 hPa | 0 mm | - | 0 W/m² | - |
| 1777947212 | 12.78° C | 60% | 1014 hPa | 0 mm | - | 0 W/m² | - |
| 1777946908 | 12.22° C | 59% | 1013.9 hPa | 0 mm | - | 0 W/m² | - |
| 1777946604 | 11.67° C | 63% | 1013.9 hPa | 0 mm | - | 0 W/m² | - |
| 1777946301 | 11.67° C | 65% | 1013.8 hPa | 0 mm | - | 0 W/m² | - |
| 1777945998 | 11.67° C | 64% | 1013.9 hPa | 0 mm | - | 0 W/m² | - |
| 1777945695 | 11.67° C | 66% | 1013.8 hPa | 0 mm | - | 0 W/m² | - |
| 1777945392 | 11.67° C | 65% | 1013.5 hPa | 0 mm | - | 0 W/m² | - |
| 1777945088 | 12.22° C | 60% | 1013.8 hPa | 0 mm | - | 0 W/m² | - |
| 1777944786 | 12.22° C | 59% | 1013.4 hPa | 0 mm | - | 0 W/m² | - |
| 1777944484 | 12.22° C | 58% | 1013.4 hPa | 0 mm | - | 0 W/m² | - |
| 1777944182 | 12.22° C | 59% | 1013.2 hPa | 0 mm | - | 0 W/m² | - |
| 1777943877 | 12.78° C | 58% | 1013.2 hPa | 0 mm | - | 0 W/m² | - |
| 1777943574 | 12.78° C | 56% | 1013.3 hPa | 0 mm | - | 0 W/m² | - |
| 1777943270 | 12.78° C | 55% | 1013.1 hPa | 0 mm | - | 0 W/m² | - |
| 1777942966 | 13.33° C | 56% | 1013.3 hPa | 0 mm | - | 0 W/m² | - |
| 1777942663 | 13.33° C | 55% | 1013.2 hPa | 0 mm | - | 0 W/m² | - |
| 1777942360 | 13.33° C | 55% | 1013.1 hPa | 0 mm | - | 0 W/m² | - |
| 1777942057 | 13.33° C | 53% | 1012.7 hPa | 0 mm | - | 0 W/m² | - |
| 1777941753 | 13.89° C | 53% | 1012.9 hPa | 0 mm | - | 0 W/m² | - |
* Rain latest hour (hover to see other rain measurements)
** Current wind speed in m/s (hover to see current wind gust speed)